Weather History for KALO - December, 2013

Change the Weather History Date:

Monday, December 16, 2013

  Actual Average Record
Temperature  
Mean Temperature 15 °F 22 °F  
Max Temperature 20 °F 30 °F 63 °F (1939)
Min Temperature 9 °F 13 °F -20 °F (1932)
Degree Days  
Heating Degree Days 50 43  
Month to date heating degree days 686 650  
Since 1 July heating degree days 2292 2133  
Cooling Degree Days 0 0  
Month to date cooling degree days 0 0  
Year to date cooling degree days 837 799  
Moisture  
Dew Point 11 °F    
Average Humidity 84    
Maximum Humidity 92    
Minimum Humidity 76    
Precipitation  
Precipitation T in 0.03 in 0.90 in (1940)
Month to date precipitation 0.38 0.71  
Year to date precipitation 40.32 34.11  
Snow  
Snow T in 0.30 in 9.00 in (1940)
Month to date snowfall 7.3 5.2  
Since 1 July snowfall 13.2 8.6  
Snow Depth 2.00 in    
Sea Level Pressure  
Sea Level Pressure 30.08 in    
Wind  
Wind Speed 8 mph (South)    
Max Wind Speed 15 mph    
Max Gust Speed 18 mph    
Visibility 6 miles    
Events      
T = Trace of Precipitation, MM = Missing Value Source: NWS Daily Summary

Daily Weather History Graph

Daily Weather History Graph

Search for Another Location

Airport or City:

Trip Planner

Search our weather history database for the weather conditions in past years. The results will help you decide how hot, cold, wet, or windy it might be!

Date:

Astronomy

Dec. 16, 2013 Rise Set
Actual Time 7:33 AM CST 4:37 PM CST
Civil Twilight 7:01 AM CST 5:09 PM CST
Nautical Twilight 6:25 AM CST 5:45 PM CST
Astronomical Twilight 5:51 AM CST 6:19 PM CST
Moon 4:29 PM CST (12/16) 6:40 AM CST (12/16)
Length of Visible Light 10h 08m
Length of Day
9h 04m
Full, 100% of the Moon is Illuminated
Dec 16
Full
Dec 17
Full
Dec 25
Last Quarter
Jan 1
New
Jan 7
First Quarter

Hourly Weather History & Observations

Time (CST) Temp. Windchill Dew Point Humidity Pressure Visibility Wind Dir Wind Speed Gust Speed Precip Events Conditions
12:54 AM 10.0 °F -0.9 °F 5.0 °F 80% 30.12 in 10.0 mi East 6.9 mph - 0.00 in   Overcast
1:54 AM 10.0 °F -0.9 °F 5.0 °F 80% 30.13 in 10.0 mi ENE 6.9 mph - N/A   Overcast
2:54 AM 10.0 °F -0.9 °F 5.0 °F 80% 30.14 in 10.0 mi East 6.9 mph - N/A   Overcast
3:54 AM 10.0 °F 0.4 °F 5.0 °F 80% 30.13 in 10.0 mi East 5.8 mph - N/A   Overcast
4:20 AM 10.0 °F 0.4 °F 6.1 °F 84% 30.06 in 10.0 mi ESE 5.8 mph - N/A   Overcast
4:54 AM 10.0 °F 0.4 °F 6.1 °F 84% 30.12 in 10.0 mi ESE 5.8 mph - N/A   Overcast
5:04 AM 10.0 °F 0.4 °F 6.1 °F 84% 30.06 in 10.0 mi ESE 5.8 mph - N/A   Overcast
5:54 AM 10.9 °F 0.2 °F 6.1 °F 81% 30.11 in 5.0 mi SE 6.9 mph - N/A   Haze
6:54 AM 10.9 °F -0.8 °F 7.0 °F 84% 30.10 in 6.0 mi SE 8.1 mph - N/A   Overcast
7:54 AM 10.9 °F 0.2 °F 7.0 °F 84% 30.11 in 10.0 mi SE 6.9 mph - N/A   Overcast
8:54 AM 12.0 °F -0.4 °F 9.0 °F 88% 30.09 in 5.0 mi SE 9.2 mph - N/A   Overcast
9:54 AM 12.9 °F -0.2 °F 9.0 °F 84% 30.12 in 4.0 mi South 10.4 mph - N/A   Overcast
10:39 AM 14.0 °F 1.2 °F 10.0 °F 84% 30.03 in 8.0 mi South 10.4 mph - N/A   Overcast
10:54 AM 14.0 °F 1.2 °F 10.0 °F 84% 30.09 in 10.0 mi SSE 10.4 mph - N/A   Overcast
11:54 AM 15.1 °F 1.8 °F 10.9 °F 84% 30.05 in 4.0 mi South 11.5 mph - N/A   Overcast
12:42 PM 16.0 °F 5.3 °F 12.0 °F 84% 29.98 in 2.5 mi South 8.1 mph - N/A   Overcast
12:54 PM 16.0 °F 6.3 °F 12.9 °F 88% 30.03 in 3.0 mi South 6.9 mph - N/A   Overcast
1:29 PM 17.1 °F 7.6 °F 12.9 °F 84% 29.97 in 2.5 mi SSW 6.9 mph - N/A   Overcast
1:45 PM 17.1 °F 7.6 °F 12.9 °F 84% 29.97 in 4.0 mi SSW 6.9 mph - N/A   Overcast
1:54 PM 17.1 °F 7.6 °F 12.9 °F 84% 30.03 in 5.0 mi SW 6.9 mph - N/A   Overcast
2:40 PM 18.0 °F 7.7 °F 15.1 °F 88% 29.99 in 4.0 mi SW 8.1 mph - N/A   Overcast
2:54 PM 18.0 °F 6.9 °F 15.1 °F 88% 30.06 in 5.0 mi WSW 9.2 mph - N/A   Overcast
3:54 PM 19.0 °F 12.3 °F 16.0 °F 88% 30.07 in 4.0 mi West 4.6 mph - N/A   Overcast
4:54 PM 19.9 °F 10.1 °F 17.1 °F 89% 30.08 in 4.0 mi West 8.1 mph - N/A   Overcast
5:54 PM 19.9 °F 11.1 °F 18.0 °F 92% 30.08 in 4.0 mi West 6.9 mph - N/A   Overcast
6:54 PM 19.9 °F 10.1 °F 18.0 °F 92% 30.09 in 5.0 mi WNW 8.1 mph - N/A   Overcast
7:54 PM 19.0 °F 8.2 °F 16.0 °F 88% 30.10 in 6.0 mi WNW 9.2 mph - N/A   Overcast
8:54 PM 19.0 °F 6.8 °F 17.1 °F 92% 30.10 in 6.0 mi West 11.5 mph - N/A   Overcast
9:32 PM 18.0 °F 9.8 °F 16.0 °F 92% 30.06 in 6.0 mi WNW 5.8 mph - N/A   Scattered Clouds
9:54 PM 17.1 °F 10.0 °F 15.1 °F 92% 30.11 in 6.0 mi West 4.6 mph - N/A   Clear
10:54 PM 16.0 °F 6.3 °F 14.0 °F 92% 30.11 in 7.0 mi SW 6.9 mph - N/A   Clear
11:54 PM 12.9 °F 5.2 °F 10.9 °F 92% 30.11 in 6.0 mi SW 4.6 mph - N/A   Clear